sat.trackr.live / text

‹ back to catalog

STARLINK-31811

NORAD 60051 · 2024-112P

PAYLOAD ACTIVE UNKNOWN

§ Identity

Operator
Country
US
Launch date
2024-06-08
Launch site
AFWTR
Launch vehicle
Mass (kg)
RCS (m²)

Purposes: comms

External: N2YO · Heavens-Above · Gunter

§ Orbital elements

Epoch: 2026-05-25T04:00:03.998880Z

Period
94.01 min
Inclination
53.1598°
Eccentricity
0.0001469
Mean motion
15.31685500 rev/d
Perigee alt
469.8 km
Apogee alt
471.8 km
Semi-major
6,848.9 km
B*
7.3194e-4
RAAN
82.9655°
Arg perigee
82.8028°
Mean anomaly
245.7185°
Rev number
586

§ Raw data

STARLINK-318111 60051U 24112P   26145.16671295  .00022406  00000+0  73194-3 0  99972 60051  53.1598  82.9655 0001469  82.8028 245.7185 15.31685500  5863

JSON: /api/v1/satellites/60051 · /tle

For live sub-satellite position, see the globe view (requires WebGL).

§ Visibility from observer

Set your observer location to see the next 7 days of passes ≥ 10°. The values pass through the URL so the page stays shareable.

No JS? Fill the form by hand. The geolocation button needs JavaScript.